KE0RUZ Weather Reports


time (UTC)temp
C
wind
direction
speed
KPH
gust
KPH
rain 1hr
cm
rain 24hr
cm
rain mn
cm
humidity
%
barometer
mb
20260510130051 16 101 1.6 6.4 0.00 0.00 0.00 79 1019.4
20260510124555 16 72 1.6 6.4 0.00 0.00 0.00 81 1019.1
20260510123047 15 36 3.2 8.0 0.00 0.00 0.00 83 1018.8
20260510121545 15 105 1.6 6.4 0.00 0.00 0.00 84 1018.1
20260510120045 14 136 1.6 4.8 0.00 0.00 0.00 85 1017.8
20260510114548 14 36 0.0 4.8 0.00 0.00 0.00 85 1017.6
20260510113040 14 38 1.6 4.8 0.00 0.00 0.00 84 1017.5
20260510111548 15 0 0.0 8.0 0.00 0.00 0.00 83 1017.1
20260510110047 15 23 1.6 8.0 0.00 0.00 0.00 83 1016.8
20260510104550 15 41 1.6 6.4 0.00 0.00 0.00 83 1016.6
20260510103051 15 38 1.6 6.4 0.00 0.00 0.00 83 1016.6
20260510101551 13 0 0.0 4.8 0.00 0.00 0.00 87 1016.7
20260510100110 13 0 0.0 0.0 0.00 0.00 0.00 87 1016.5
20260510094554 14 0 0.0 0.0 0.00 0.03 0.00 85 1016.3
20260510093050 14 0 0.0 0.0 0.00 0.03 0.00 85 1016.0
20260510091544 14 0 0.0 0.0 0.00 0.03 0.00 85 1015.5
20260510090045 14 0 0.0 0.0 0.00 0.03 0.00 85 1015.4
20260510084539 15 0 0.0 0.0 0.00 0.03 0.00 86 1015.0
20260510083054 15 0 0.0 0.0 0.00 0.03 0.00 85 1014.9
20260510081548 15 0 0.0 0.0 0.00 0.03 0.00 84 1015.0
20260510080259 15 0 0.0 0.0 0.00 0.03 0.00 83 1015.0
20260510074549 15 0 0.0 0.0 0.00 0.03 0.00 82 1015.0
20260510073045 16 0 0.0 0.0 0.00 0.03 0.00 83 1015.0
20260510071554 16 0 0.0 1.6 0.00 0.03 0.00 83 1015.1
20260510070049 16 0 0.0 0.0 0.00 0.03 0.00 83 1014.9
20260510064544 16 0 0.0 0.0 0.00 0.03 0.00 82 1014.8
20260510063046 16 0 0.0 0.0 0.00 0.03 0.00 80 1014.7
20260510061548 16 142 0.0 4.8 0.00 0.03 0.00 80 1014.6
20260510060041 16 28 1.6 4.8 0.00 0.03 0.00 84 1014.6
20260510054550 16 0 0.0 1.6 0.00 0.03 0.00 84 1014.4
20260510053047 16 0 0.0 0.0 0.00 0.03 0.00 85 1014.6
20260510051550 16 0 0.0 0.0 0.00 0.03 0.00 85 1014.7
20260510050047 15 0 0.0 0.0 0.00 0.03 0.00 85 1014.7
20260510044551 15 0 0.0 0.0 0.00 0.03 0.03 85 1014.6
20260510043040 15 0 0.0 0.0 0.00 0.03 0.03 85 1014.5
20260510041547 15 0 0.0 0.0 0.00 0.03 0.03 85 1014.4
20260510040049 14 0 0.0 0.0 0.00 0.03 0.03 85 1014.3
20260510034550 14 0 0.0 0.0 0.00 0.03 0.03 85 1014.2
20260510033102 14 0 0.0 0.0 0.00 0.03 0.03 83 1013.9
20260510031548 15 0 0.0 0.0 0.00 0.03 0.03 83 1013.6
20260510030050 15 0 0.0 0.0 0.00 0.03 0.03 81 1013.6
20260510024545 16 0 0.0 0.0 0.00 0.03 0.03 79 1013.4
20260510023045 16 0 0.0 0.0 0.00 0.03 0.03 77 1013.0
20260510021540 17 0 0.0 0.0 0.00 0.03 0.03 74 1012.9
20260510020047 17 0 0.0 0.0 0.00 0.03 0.03 73 1012.4
20260510014546 18 0 0.0 0.0 0.00 0.03 0.03 70 1012.0
20260510013044 20 0 0.0 0.0 0.00 0.03 0.03 66 1011.7
20260510011552 22 0 0.0 0.0 0.00 0.03 0.03 57 1011.4
20260510010043 23 0 0.0 1.6 0.00 0.03 0.03 54 1011.4
20260510004545 26 0 0.0 1.6 0.00 0.03 0.03 46 1011.3
20260510003103 26 0 0.0 1.6 0.00 0.03 0.03 44 1011.2
20260510001546 27 139 0.0 3.2 0.00 0.03 0.03 44 1011.1
20260510000047 27 232 1.6 4.8 0.00 0.03 0.03 44 1011.1
20260509234559 27 253 1.6 6.4 0.00 0.03 0.03 40 1011.1
20260509233043 28 248 0.0 4.8 0.00 0.03 0.03 39 1011.2
20260509231552 28 252 1.6 6.4 0.00 0.03 0.03 35 1011.2
20260509230055 29 0 0.0 6.4 0.00 0.03 0.03 35 1011.1
20260509224546 28 0 0.0 1.6 0.00 0.03 0.03 34 1011.1
20260509223045 27 238 1.6 8.0 0.00 0.03 0.03 38 1011.2
20260509221541 27 303 6.4 11.3 0.00 0.03 0.03 40 1011.2
20260509220038 28 304 1.6 6.4 0.00 0.03 0.03 37 1011.3
20260509214551 27 244 4.8 11.3 0.00 0.03 0.03 39 1011.2
20260509213052 27 324 1.6 6.4 0.00 0.03 0.03 39 1011.3
20260509211547 27 299 4.8 11.3 0.00 0.03 0.03 39 1011.5
20260509210048 27 321 3.2 11.3 0.00 0.03 0.03 42 1011.6
20260509204549 27 305 3.2 9.7 0.00 0.03 0.03 40 1011.8
20260509203049 27 330 4.8 12.9 0.00 0.03 0.03 42 1011.8
20260509201547 27 268 3.2 9.7 0.00 0.03 0.03 43 1011.9
20260509200054 27 345 4.8 16.1 0.00 0.03 0.03 42 1012.2
20260509194543 27 339 3.2 11.3 0.00 0.03 0.03 43 1012.2
20260509193043 27 272 6.4 11.3 0.00 0.03 0.03 42 1012.3
20260509191540 27 243 3.2 8.0 0.00 0.03 0.03 39 1012.5
20260509190045 27 333 8.0 14.5 0.00 0.03 0.03 42 1012.5
20260509184552 27 34 1.6 8.0 0.00 0.03 0.03 44 1012.4
20260509183118 26 333 3.2 11.3 0.00 0.03 0.03 46 1012.5
20260509181606 26 232 3.2 11.3 0.00 0.03 0.03 53 1012.8
20260509180049 26 332 4.8 12.9 0.00 0.03 0.03 41 1012.9
20260509174545 26 304 6.4 11.3 0.00 0.03 0.03 46 1012.9
20260509173046 26 313 1.6 8.0 0.00 0.03 0.03 47 1013.0
20260509171544 25 288 4.8 9.7 0.00 0.03 0.03 50 1013.0
20260509170043 25 300 3.2 12.9 0.00 0.03 0.03 52 1013.0
20260509164543 25 320 1.6 6.4 0.00 0.03 0.03 53 1013.1
20260509163053 24 323 4.8 8.0 0.00 0.03 0.03 52 1013.0
20260509161538 23 214 1.6 8.0 0.00 0.03 0.03 59 1013.0
20260509160047 23 240 3.2 9.7 0.00 0.03 0.03 61 1013.0
20260509154551 22 238 4.8 6.4 0.00 0.03 0.03 63 1013.0
20260509153046 22 18 1.6 12.9 0.00 0.03 0.03 69 1013.0
20260509151545 21 352 6.4 14.5 0.00 0.03 0.03 71 1013.0
20260509150049 21 235 3.2 9.7 0.00 0.03 0.03 78 1013.1
20260509144553 20 0 1.6 8.0 0.00 0.03 0.03 81 1013.0
20260509143043 18 310 3.2 9.7 0.00 0.03 0.03 85 1013.0
20260509141543 17 338 1.6 4.8 0.00 0.03 0.03 90 1013.0
20260509140055 17 307 1.6 8.0 0.00 0.03 0.03 94 1012.8
20260509134546 16 238 1.6 4.8 0.00 0.03 0.03 97 1012.6
20260509133046 16 0 0.0 3.2 0.00 0.03 0.03 97 1012.8
20260509131547 15 225 1.6 6.4 0.00 0.03 0.03 98 1012.6